Bloomington, IN

2:48 AM EDT on May 24, 2018 (GMT -0400)
Monroe County

Weather History for KBMG - December, 2009

Change the Weather History Date:

Sunday, December 6, 2009

  Actual Average Record
Temperature  
Mean Temperature 24 °F 35 °F  
Max Temperature 34 °F 43 °F 72 °F (1998)
Min Temperature 14 °F 26 °F 3 °F (2002)
Degree Days  
Heating Degree Days 41 30  
Month to date heating degree days 205 175  
Since 1 July heating degree days 1235 1231  
Cooling Degree Days 0 0  
Month to date cooling degree days 0 0  
Year to date cooling degree days 739 927  
Moisture  
Dew Point 16 °F    
Average Humidity 68    
Maximum Humidity 88    
Minimum Humidity 47    
Precipitation  
Precipitation 0.00 in 0.11 in 0.42 in (2013)
Month to date precipitation 0.78 0.63  
Year to date precipitation 47.62 44.64  
Sea Level Pressure  
Sea Level Pressure 30.27 in    
Wind  
Wind Speed 3 mph (SSE)    
Max Wind Speed 10 mph    
Max Gust Speed 13 mph    
Visibility 9 miles    
Events      
T = Trace of Precipitation, MM = Missing Value Source: NWS Daily Summary

Daily Weather History Graph

Daily Weather History Graph

Search for Another Location

Airport or City:

Astronomy

Dec. 06, 2009 Rise Set
Actual Time 7:51 AM EST 5:23 PM EST
Civil Twilight 7:21 AM EST 5:53 PM EST
Nautical Twilight 6:48 AM EST 6:26 PM EST
Astronomical Twilight 6:16 AM EST 6:59 PM EST
Moon 10:31 PM EST (12/6) 11:36 AM EST (12/6)
Length of Visible Light 10h 31m
Length of Day
9h 31m
Waning Gibbous, 75% of the Moon is Illuminated
Dec 6
Waning Gibbous
Dec 8
Last Quarter
Dec 16
New
Dec 24
First Quarter
Dec 31
Full

Hourly Weather History & Observations

Time (EST) Temp. Windchill Dew Point Humidity Pressure Visibility Wind Dir Wind Speed Gust Speed Precip Events Conditions
12:53 AM 18.0 °F - 12.0 °F 78% 30.25 in 8.0 mi Calm Calm - N/A   Clear
1:53 AM 17.1 °F - 12.0 °F 81% 30.25 in 8.0 mi Calm Calm - N/A   Clear
2:53 AM 16.0 °F - 12.0 °F 84% 30.27 in 8.0 mi Calm Calm - N/A   Clear
3:53 AM 18.0 °F - 12.0 °F 78% 30.29 in 9.0 mi Calm Calm - N/A   Clear
4:53 AM 16.0 °F - 12.0 °F 84% 30.31 in 8.0 mi Calm Calm - N/A   Clear
5:53 AM 15.1 °F - 10.9 °F 84% 30.32 in 8.0 mi Calm Calm - N/A   Clear
6:53 AM 16.0 °F - 12.0 °F 84% 30.33 in 7.0 mi Calm Calm - N/A   Clear
7:53 AM 17.1 °F - 12.0 °F 81% 30.34 in 7.0 mi Calm Calm - N/A   Clear
8:53 AM 21.0 °F - 16.0 °F 81% 30.32 in 7.0 mi Calm Calm - N/A   Clear
9:53 AM 26.1 °F 18.4 °F 17.1 °F 69% 30.32 in 9.0 mi SSE 6.9 mph - N/A   Clear
10:53 AM 28.9 °F 21.1 °F 19.0 °F 67% 30.33 in 10.0 mi SSE 8.1 mph - N/A   Clear
11:53 AM 30.9 °F 24.3 °F 18.0 °F 59% 30.31 in 10.0 mi SE 6.9 mph - N/A   Clear
12:53 PM 33.1 °F 26.9 °F 18.0 °F 54% 30.27 in 10.0 mi SSE 6.9 mph - N/A   Clear
1:53 PM 34.0 °F 27.2 °F 17.1 °F 50% 30.26 in 10.0 mi SE 8.1 mph - N/A   Clear
2:53 PM 34.0 °F 28.8 °F 16.0 °F 48% 30.26 in 10.0 mi South 5.8 mph - N/A   Clear
3:53 PM 34.0 °F 31.0 °F 16.0 °F 48% 30.26 in 10.0 mi South 3.5 mph - N/A   Clear
4:53 PM 33.1 °F 30.0 °F 16.0 °F 50% 30.26 in 10.0 mi SSE 3.5 mph - N/A   Clear
5:53 PM 30.0 °F - 18.0 °F 61% 30.26 in 10.0 mi Calm Calm - 0.00 in   Clear
6:53 PM 27.0 °F - 18.0 °F 69% 30.24 in 10.0 mi Calm Calm - 0.00 in   Clear
7:53 PM 25.0 °F - 19.9 °F 81% 30.22 in 10.0 mi Calm Calm - 0.00 in   Clear
8:53 PM 26.1 °F - 18.0 °F 71% 30.22 in 10.0 mi Calm Calm - N/A   Clear
9:53 PM 26.1 °F 20.5 °F 17.1 °F 69% 30.20 in 9.0 mi SSE 4.6 mph - N/A   Clear
10:53 PM 27.0 °F 20.5 °F 18.0 °F 69% 30.16 in 10.0 mi SE 5.8 mph - N/A   Clear
11:53 PM 28.9 °F 21.1 °F 19.0 °F 67% 30.12 in 10.0 mi SE 8.1 mph - N/A   Partly Cloudy